Meteo Giornale » Osservazioni meteo Italia » Bologna-Borgo Panigale

ore: 20:50 - Osservazioni Meteo Bologna-Borgo Panigale
Lat. 44° 32' N Lon. 11° 18' E Alt. 36 metri s.l.m.

nuvoloso Europe/Rome

8 °C

Nuvoloso

Temp. 24 Ore

6 °C

13 °C

Ovest

7.4 Km/h

Dew point 5 °C

Umidità 81 %

Visibilità  10 Km

Il sole sorge alle ore 07:11

Il sole tramonta alle ore 16:47

Data e Ora Cielo e Fenomeni T °C DP °C Um. % Pres. hPa Vis. km Vento km/h
Oggi h: 20:50 nuvoloso Nuvoloso 8 5 81 1027 10 O 7.4
Oggi h: 20:20 nuvoloso Nuvoloso 8 5 81 1026 10 N 3.7
Oggi h: 19:50 nuvoloso Nuvoloso 8 5 81 1026 10 N 3.7
Oggi h: 19:20 poco_nuvoloso Poco Nuvoloso 8 4 75 1026 10 N 5.5
Oggi h: 18:20 sereno Sereno 9 4 70 1026 10 N 3.7
Oggi h: 17:50 sereno Sereno 9 4 70 1026 10 N 5.5
Oggi h: 17:20 sereno Sereno 10 4 66 1026 10 N/NE 9.3
Oggi h: 16:50 poco_nuvoloso Poco Nuvoloso 10 4 66 1026 10 NE 9.3
Oggi h: 16:20 poco_nuvoloso Poco Nuvoloso 12 3 54 1026 10 E/NE 13
Oggi h: 15:50 nuvoloso Nuvoloso 12 4 57 1026 10 NE 9.3
Oggi h: 15:20 nuvoloso Nuvoloso 13 3 50 1026 10 E/NE 14.8
Oggi h: 14:50 nuvoloso Nuvoloso 13 4 54 1026 10 E/NE 13
Oggi h: 14:20 nuvoloso Nuvoloso 13 5 58 1026 10 NE 14.8
Oggi h: 13:50 nuvoloso Nuvoloso 13 7 66 1026 10 N/NE 9.3
Oggi h: 13:20 nuvoloso Nuvoloso 13 8 71 1027 10 N 5.5
Oggi h: 12:50 nuvoloso Nuvoloso 12 7 71 1027 10 O/NO 9.3
Oggi h: 12:20 nuvoloso Nuvoloso 11 7 76 1027 10 NO 7.4
Oggi h: 11:50 nuvoloso Nuvoloso 11 6 71 1027 10 O/NO 7.4
Oggi h: 11:20 nuvoloso Nuvoloso 11 6 71 1028 10 N 5.5
Oggi h: 10:20 nuvoloso Nuvoloso 10 7 81 1027 8 N 5.5
Oggi h: 09:50 nuvoloso Nuvoloso 9 7 87 1027 8 O 7.4
Oggi h: 09:20 nuvoloso Nuvoloso 8 7 93 1027 7 N 5.5
Oggi h: 08:50 foschia Foschia 8 7 93 1027 5 N 5.5
Oggi h: 08:20 foschia Foschia 7 7 100 1027 5 O/NO 7.4
Oggi h: 07:50 foschia Foschia 7 7 100 1027 5 O/SO 9.3
Oggi h: 07:20 foschia Foschia 7 6 93 1026 4 N 5.5
Oggi h: 06:50 foschia Foschia 7 6 93 1026 4 N 5.5
Oggi h: 06:20 foschia Foschia 6 6 100 1026 3 N 3.7
Oggi h: 05:50 nebbia Nebbia a Strati 7 6 93 1026 2 N 3.7
Oggi h: 05:20 nebbia Nebbia a Strati 7 6 93 1025 2 N 3.7
Oggi h: 04:50 foschia Foschia 7 7 100 1025 2 N 5.5
Oggi h: 04:20 foschia Foschia 7 6 93 1025 3 O/SO 7.4
Oggi h: 03:50 nebbia Nebbia a Strati 7 7 100 1025 3 O/SO 7.4
Oggi h: 03:20 nebbia Nebbia a Strati 7 6 93 1025 3 N 3.7
Oggi h: 02:50 foschia Foschia 7 7 100 1025 3 N 1.8
Oggi h: 02:20 foschia Foschia 7 7 100 1025 4 N 5.5
Oggi h: 01:50 foschia Foschia 8 7 93 1025 4 N 1.8
Oggi h: 01:20 foschia Foschia 9 8 93 1024 4 SO 7.4
Oggi h: 00:50 foschia Foschia 9 8 93 1025 4 N 1.8
Oggi h: 00:20 foschia Foschia 9 8 93 1024 5 N 5.5
Ieri h: 23:50 foschia Foschia 9 8 93 1024 5 N 3.7
Ieri h: 23:20 foschia Foschia 9 8 93 1024 5 SO 9.3
Ieri h: 22:50 foschia Foschia 8 7 93 1024 5 O/SO 7.4
Ieri h: 22:20 foschia Foschia 9 8 93 1024 5 N 5.5
Ieri h: 21:50 foschia Foschia 8 7 93 1024 5 N 5.5
Ieri h: 21:20 foschia Foschia 8 7 93 1024 5 SO 7.4
Ieri h: 20:50 foschia Foschia 9 8 93 1024 4 N 5.5